GFSNE_925_temp_015.txt.gz
Temp
0 0 0 0 1 1 2 2 3 4 6 6 5 5 4 5 4 4 5 5 5 5 5 5 6 6 6 6 6 7 7 7 7 9 10 10 10 12
1 1 1 1 1 1 1 1 2 3 4 4 4 4 3 4 4 3 4 4 4 4 4 4 5 5 6 6 6 6 6 6 6 6 8 10 11 11
2 2 2 2 2 2 2 2 2 2 3 3 3 3 3 3 3 3 3 3 3 3 3 4 4 4 5 5 5 6 6 6 6 6 6 8 10 11
2 1 1 1 1 1 1 1 1 1 1 2 2 2 2 2 2 2 2 2 2 2 2 2 3 3 4 4 5 5 5 6 6 6 7 7 8 10
0 -0 -1 -1 -1 -1 -1 -0 -0 -0 0 1 1 1 1 1 1 1 1 1 1 1 1 2 2 2 3 3 4 5 5 5 5 6 7 6 7 9
-1 -2 -2 -2 -2 -2 -2 -2 -1 -1 -1 -1 -0 -0 0 0 -0 0 0 0 0 1 1 1 1 1 1 2 3 4 5 5 5 5 5 6 6 7
-2 -2 -3 -3 -4 -4 -3 -2 -2 -2 -2 -2 -2 -1 -1 -1 -2 -1 -0 -0 -0 -1 -1 -0 0 1 1 1 2 3 4 5 5 5 5 5 6 6
-3 -3 -4 -4 -4 -4 -5 -5 -4 -3 -3 -3 -2 -2 -1 -1 -1 -1 -1 -1 0 -1 -1 -1 -1 -0 0 1 1 1 2 3 5 5 5 5 5 5
-4 -4 -4 -4 -4 -4 -4 -5 -5 -5 -5 -4 -4 -3 -2 -2 -3 -3 -3 -2 -1 -1 -1 -1 -1 -1 -1 -0 -0 0 1 2 2 3 4 5 5 5
-5 -4 -4 -5 -5 -5 -5 -4 -4 -4 -4 -4 -4 -4 -3 -3 -3 -3 -3 -3 -2 -2 -2 -3 -2 -2 -2 -1 -1 -1 -0 0 0 1 2 4 4 4
-5 -5 -5 -5 -5 -5 -5 -5 -4 -3 -3 -4 -4 -4 -4 -4 -4 -4 -3 -3 -2 -2 -1 -3 -2 -2 -2 -2 -2 -1 -0 -0 0 0 1 2 3 3
-5 -5 -5 -5 -5 -5 -5 -5 -4 -4 -4 -4 -4 -3 -4 -4 -4 -4 -4 -3 -2 -2 -1 -2 -1 -1 -1 -1 -2 -2 -2 -0 0 1 1 1 2 3
-5 -4 -5 -5 -6 -6 -6 -6 -6 -6 -5 -5 -4 -3 -3 -4 -4 -3 -4 -4 -3 -2 -1 -2 -1 -1 -1 -1 -1 -2 -2 -2 -1 1 1 0 1 2
-6 -5 -5 -6 -7 -7 -7 -7 -7 -7 -6 -5 -5 -4 -3 -3 -3 -3 -3 -3 -3 -3 -2 -3 -2 -2 -2 -1 0 -1 -2 -2 -3 0 -1 -0 0 1
-6 -6 -7 -7 -8 -7 -8 -8 -7 -7 -6 -5 -4 -4 -3 -4 -4 -4 -4 -4 -4 -4 -4 -4 -4 -3 -2 -2 -1 -1 -1 -2 -2 -2 -2 -1 -1 -0
-7 -7 -8 -8 -8 -8 -7 -7 -8 -7 -7 -6 -5 -5 -4 -4 -3 -3 -3 -3 -4 -4 -4 -4 -4 -4 -3 -2 -2 -2 -2 -1 -3 -3 -3 -3 -2 -1
-7 -8 -8 -8 -7 -7 -7 -8 -8 -7 -7 -7 -6 -5 -4 -4 -4 -4 -4 -3 -3 -3 -3 -4 -4 -4 -4 -3 -2 -2 -1 -1 -2 -2 -3 -2 -2 -3
-8 -9 -9 -9 -8 -8 -8 -8 -8 -8 -8 -8 -7 -6 -5 -4 -4 -4 -4 -3 -3 -2 -2 -3 -3 -3 -3 -4 -3 -2 -2 -2 -2 -3 -4 -3 -1 -2
-9 -10 -10 -10 -9 -9 -9 -9 -9 -9 -9 -8 -8 -7 -7 -5 -4 -4 -4 -3 -3 -3 -2 -3 -3 -2 -1 -1 -4 -5 -4 -2 -3 -4 -4 -4 -2 -3
-11 -11 -11 -11 -11 -10 -10 -10 -10 -9 -9 -9 -9 -9 -8 -6 -5 -5 -4 -4 -3 -3 -4 -4 -3 -3 -2 -2 -2 -6 -6 -5 -4 -3 -4 -5 -6 -6
-12 -12 -12 -12 -12 -11 -11 -11 -10 -10 -10 -10 -9 -9 -9 -8 -7 -6 -5 -6 -4 -4 -4 -4 -6 -6 -6 -6 -5 -6 -7 -7 -6 -5 -6 -5 -4 -4
-13 -13 -13 -13 -13 -12 -12 -12 -11 -11 -10 -10 -10 -9 -9 -9 -8 -7 -7 -5 -5 -5 -6 -6 -7 -6 -6 -5 -4 -6 -7 -8 -7 -7 -7 -6 -5 -2
-14 -14 -14 -14 -14 -13 -13 -12 -12 -11 -11 -11 -10 -10 -10 -9 -9 -8 -7 -7 -7 -6 -6 -6 -6 -7 -7 -6 -6 -6 -7 -7 -7 -6 -8 -7 -7 -6

GFSNE_925_temp_021.txt.gz
Temp
4 4 4 4 4 4 3 3 2 3 5 6 6 7 7 6 6 7 7 7 7 6 6 6 5 5 6 6 7 7 7 6 6 7 7 6 7 8
3 2 2 3 3 2 3 3 3 3 4 5 6 6 7 7 7 7 7 6 6 5 5 5 5 5 4 5 5 6 6 6 6 7 7 6 6 6
3 3 3 4 5 5 5 5 5 5 6 6 6 6 6 6 6 6 6 6 6 6 5 5 5 4 4 4 4 5 5 5 6 6 6 6 6 6
3 3 3 4 4 4 4 4 4 5 5 6 5 6 5 5 6 6 6 6 6 6 6 5 5 4 4 3 3 4 4 4 5 5 6 6 6 6
3 3 3 3 3 3 3 3 3 4 4 4 5 5 5 5 5 5 5 5 5 5 5 4 4 3 3 3 3 3 3 3 4 4 5 5 5 5
2 2 2 2 2 2 2 2 2 2 2 3 3 4 4 4 4 5 5 5 5 5 5 5 4 4 3 3 2 2 2 2 3 4 4 4 5 5
1 2 2 2 1 0 -0 -0 -0 0 1 2 3 4 4 4 4 4 4 4 3 3 3 3 3 4 3 3 3 3 3 2 2 3 4 4 4 5
0 1 1 1 1 0 -1 -1 -2 -2 -2 -1 -1 0 1 1 1 1 1 1 1 1 2 2 2 2 2 3 3 1 2 3 2 2 2 3 3 4
-0 0 0 1 0 0 0 -2 -3 -4 -4 -3 -3 -2 -1 -1 -1 -1 -0 0 1 1 1 1 1 0 1 1 1 1 1 0 0 1 1 1 2 3
-2 -1 -1 -1 -1 -3 -3 -3 -3 -2 -3 -3 -3 -3 -2 -1 -1 -1 -1 -1 -1 -1 -0 -0 -0 0 -0 -0 -0 0 0 0 -0 0 0 1 1 2
-4 -3 -3 -3 -3 -4 -4 -4 -3 -3 -2 -3 -3 -3 -3 -3 -3 -3 -3 -2 -1 -0 -0 -0 -0 -0 -0 -0 -0 -0 -0 -0 -0 -0 -0 -0 -0 0
-4 -4 -4 -4 -4 -4 -4 -4 -4 -3 -3 -4 -3 -3 -3 -3 -3 -3 -3 -2 -2 -1 -0 0 0 0 -0 -0 -0 -0 -1 -1 -1 -1 -1 -1 -0 -1
-5 -5 -4 -5 -6 -6 -6 -6 -5 -5 -5 -5 -4 -4 -3 -3 -2 -2 -3 -3 -2 -1 -1 -1 -2 -0 0 0 1 -0 0 -0 -1 -1 -1 -1 -0 -0
-6 -5 -5 -6 -6 -6 -7 -6 -6 -7 -6 -5 -4 -3 -3 -2 -2 -2 -2 -2 -2 -2 -2 -2 -2 -1 0 -0 1 1 1 0 -1 -1 -1 -1 -1 -0
-6 -6 -6 -6 -7 -6 -5 -6 -6 -6 -4 -4 -3 -3 -3 -2 -2 -2 -1 -2 -2 -2 -3 -2 -3 -2 -2 -1 0 0 -0 -0 -1 -2 -1 -1 -1 -2
-7 -7 -6 -6 -6 -6 -5 -5 -5 -5 -5 -4 -4 -4 -3 -3 -2 -2 -2 -1 -2 -1 -2 -2 -3 -3 -2 -2 -1 -1 -1 -0 -0 -1 -1 -1 -1 -0
-8 -6 -6 -7 -7 -6 -6 -6 -5 -5 -5 -5 -5 -4 -4 -3 -3 -2 -2 -2 -1 -1 -1 -2 -3 -3 -3 -3 -2 -2 -1 -1 -0 -0 -1 -1 -1 -1
-7 -7 -7 -7 -7 -7 -7 -6 -6 -6 -6 -6 -5 -5 -5 -4 -4 -3 -2 -2 -1 -0 -0 -1 -2 -3 -3 -3 -3 -2 -1 -1 -1 -1 -1 -1 -0 -1
-8 -8 -8 -8 -8 -7 -7 -7 -7 -7 -7 -6 -6 -6 -5 -5 -4 -3 -2 -2 -1 -1 -1 -2 -2 -2 -1 -1 -3 -4 -3 -2 -2 -2 -1 -1 -1 -1
-9 -9 -9 -9 -8 -8 -8 -8 -8 -7 -7 -7 -6 -6 -6 -5 -4 -4 -3 -3 -2 -2 -1 -2 -3 -3 -2 -2 -2 -5 -5 -5 -4 -3 -2 -2 -3 -2
-9 -9 -9 -9 -9 -9 -9 -8 -8 -7 -8 -7 -7 -7 -6 -5 -5 -5 -5 -4 -3 -3 -2 -3 -4 -4 -4 -3 -3 -4 -6 -6 -6 -5 -4 -2 -2 -3
-10 -10 -9 -10 -10 -10 -10 -9 -8 -8 -8 -8 -8 -7 -6 -6 -6 -5 -5 -4 -4 -4 -4 -4 -4 -4 -3 -3 -2 -4 -4 -5 -5 -6 -5 -5 -5 -3
-11 -10 -10 -10 -10 -10 -10 -10 -9 -9 -9 -9 -9 -8 -7 -6 -6 -6 -5 -5 -5 -4 -4 -4 -3 -3 -4 -4 -4 -3 -5 -5 -4 -4 -6 -6 -6 -6

GFSNE_925_temp_024.txt.gz
Temp
3 3 3 3 3 4 4 4 3 1 2 4 4 5 5 5 4 4 4 4 5 6 7 7 6 6 6 6 6 6 6 7 7 7 7 8 8 7
3 3 3 3 2 1 2 3 3 3 2 4 4 4 5 5 5 5 5 6 6 6 6 6 6 5 5 5 5 5 5 6 6 6 6 6 6 6
2 2 2 3 3 3 3 4 4 4 2 3 4 5 6 6 6 6 6 6 6 6 6 6 5 5 5 5 5 5 5 5 5 5 5 6 6 6
3 3 3 3 4 3 3 3 4 4 4 3 4 4 4 5 5 5 5 5 6 6 6 6 6 6 5 5 5 4 4 4 4 4 4 4 5 5
2 2 2 2 2 2 2 2 2 2 2 2 2 3 3 3 3 4 4 4 5 5 5 5 5 5 4 4 4 4 4 3 3 3 4 4 4 4
-0 0 1 1 2 2 1 1 1 0 -0 -0 0 1 2 3 3 3 4 4 4 4 5 5 4 5 5 4 4 3 3 3 3 3 3 3 4 4
-1 -1 -0 1 1 1 1 1 0 -0 -1 -1 -1 -0 0 0 0 1 1 2 2 2 2 3 3 3 3 3 3 3 3 3 2 3 3 3 3 4
-2 -2 -1 -1 0 0 0 0 -0 -1 -2 -2 -2 -2 -2 -2 -1 -1 -1 -1 -2 1 1 1 1 1 2 2 2 2 2 1 1 1 1 2 2 2
-3 -3 -2 -2 -2 -2 -2 -2 -3 -3 -3 -3 -4 -3 -3 -3 -2 -2 -1 -2 -1 -1 -0 -0 0 0 0 1 1 1 1 1 1 1 1 1 1 1
-4 -4 -4 -4 -4 -3 -3 -3 -3 -3 -3 -3 -3 -4 -4 -4 -3 -3 -2 -3 -2 -1 -1 -2 -1 -0 -0 0 0 0 1 1 1 1 1 1 0 1
-5 -5 -5 -4 -4 -4 -4 -4 -4 -4 -3 -3 -4 -3 -3 -3 -3 -4 -3 -3 -3 -3 -2 -2 -2 -1 -1 -1 -0 -0 -0 0 0 0 -0 -0 -0 -0
-5 -5 -5 -5 -5 -5 -6 -5 -5 -5 -4 -4 -4 -4 -4 -4 -3 -3 -4 -4 -3 -3 -2 -2 -1 -1 -2 -0 -0 -0 -0 -0 -0 -0 -0 -1 -1 -1
-6 -6 -6 -5 -5 -5 -6 -6 -6 -6 -6 -6 -6 -5 -4 -4 -4 -3 -3 -3 -3 -3 -2 -2 -3 -2 -2 -1 -0 0 0 0 0 -0 -0 -1 -1 -1
-7 -7 -6 -6 -6 -6 -6 -6 -6 -6 -6 -6 -6 -4 -4 -3 -3 -3 -3 -3 -3 -3 -2 -2 -2 -3 -2 -2 -1 -0 0 0 0 -0 -1 -1 -1 -1
-8 -8 -7 -7 -6 -6 -6 -5 -5 -6 -5 -5 -5 -4 -4 -4 -3 -3 -2 -2 -2 -2 -2 -2 -2 -3 -3 -3 -2 -1 -1 -0 -1 -1 -1 -1 -1 -1
-8 -7 -7 -7 -7 -7 -6 -6 -6 -6 -6 -5 -5 -5 -4 -4 -3 -3 -3 -2 -2 -2 -1 -2 -2 -2 -3 -3 -2 -2 -1 -1 -1 -1 -1 -1 -2 -2
-8 -7 -7 -8 -7 -7 -7 -7 -7 -7 -6 -6 -6 -5 -5 -5 -4 -3 -3 -2 -2 -2 -1 -1 -2 -2 -3 -3 -3 -2 -2 -1 -1 -1 -2 -1 -1 -1
-8 -8 -8 -8 -8 -8 -7 -8 -8 -7 -7 -7 -6 -6 -6 -5 -5 -4 -3 -3 -2 -2 -1 -2 -2 -3 -3 -3 -3 -3 -2 -2 -2 -2 -2 -2 -1 -0
-9 -9 -9 -9 -9 -8 -8 -8 -8 -7 -7 -7 -7 -6 -6 -6 -5 -4 -4 -4 -3 -2 -2 -2 -3 -2 -3 -3 -4 -4 -4 -3 -3 -3 -2 -2 -2 -1
-9 -9 -9 -9 -9 -9 -9 -9 -9 -8 -8 -8 -8 -7 -6 -6 -5 -5 -5 -5 -4 -3 -3 -3 -4 -5 -4 -4 -3 -5 -4 -4 -4 -4 -3 -3 -3 -2
-10 -10 -10 -10 -10 -10 -10 -10 -9 -9 -8 -8 -8 -8 -7 -6 -6 -5 -5 -5 -4 -4 -4 -4 -4 -4 -4 -3 -3 -5 -5 -5 -5 -5 -5 -4 -3 -3
-10 -10 -10 -10 -11 -11 -11 -10 -10 -10 -10 -10 -9 -9 -8 -7 -7 -6 -6 -5 -5 -5 -5 -4 -4 -3 -4 -4 -4 -4 -5 -5 -5 -5 -5 -5 -5 -5
-11 -11 -11 -11 -11 -11 -11 -11 -11 -11 -12 -11 -11 -10 -9 -8 -7 -7 -6 -6 -6 -6 -6 -6 -4 -4 -4 -4 -4 -5 -5 -5 -5 -6 -5 -5 -6 -6

GFSNE_925_temp_027.txt.gz
Temp
3 3 3 2 2 1 0 1 1 1 0 3 3 4 4 4 5 4 4 2 2 3 3 3 6 6 6 6 6 6 6 6 7 7 7 7 7 7
3 2 2 3 1 1 1 1 0 0 0 2 2 4 4 4 4 5 5 5 3 2 3 4 4 5 6 6 6 5 5 5 6 6 6 6 6 6
3 2 2 2 2 3 3 3 3 3 2 2 3 3 4 4 4 4 5 5 5 4 4 4 6 6 6 6 5 5 5 5 5 5 5 5 5 5
1 1 1 1 1 1 2 2 2 2 2 0 1 1 2 2 3 3 3 3 4 5 5 5 5 5 6 6 5 5 5 5 4 4 4 4 4 4
0 -0 -1 -0 -1 -0 1 1 1 1 1 -0 -1 -0 0 1 1 2 2 3 3 4 4 5 5 5 5 5 5 5 4 4 4 4 4 3 3 4
-1 -2 -2 -2 -1 -1 -1 -0 1 1 1 0 -1 -1 -1 -1 -1 -0 0 1 1 2 2 2 3 3 3 3 4 4 4 4 4 3 3 3 3 3
-3 -3 -3 -3 -2 -2 -2 -2 -1 -1 -1 -1 -2 -2 -2 -2 -2 -2 -2 -1 -0 0 1 1 2 2 2 2 3 3 3 3 3 2 2 2 2 2
-4 -4 -4 -4 -3 -3 -3 -3 -3 -3 -3 -3 -3 -3 -3 -3 -3 -3 -3 -3 -3 -1 -0 0 0 1 1 1 1 2 2 2 2 2 2 2 2 2
-4 -4 -4 -5 -5 -4 -4 -4 -4 -3 -3 -3 -4 -4 -4 -3 -3 -4 -4 -3 -3 -2 -2 -2 -1 -1 -0 0 0 0 1 1 1 1 1 1 2 2
-5 -5 -5 -5 -5 -5 -5 -5 -4 -4 -4 -4 -3 -3 -3 -3 -4 -4 -4 -4 -3 -3 -2 -3 -2 -2 -1 -1 -0 -0 -0 -0 0 0 1 1 1 1
-6 -6 -6 -6 -6 -5 -5 -6 -5 -5 -5 -4 -4 -4 -4 -4 -4 -4 -4 -4 -3 -4 -3 -3 -3 -2 -2 -1 -1 -1 -0 -0 -0 -0 -0 0 -0 -0
-7 -7 -7 -6 -6 -6 -5 -5 -6 -6 -6 -6 -5 -5 -5 -4 -4 -4 -4 -4 -4 -4 -3 -4 -3 -3 -3 -1 -1 0 0 -0 -0 -0 -0 -0 -1 -1
-8 -8 -7 -7 -7 -6 -6 -6 -6 -6 -6 -6 -6 -6 -5 -5 -4 -4 -4 -4 -4 -4 -3 -4 -3 -3 -3 -2 -1 -1 -0 -0 -0 0 0 0 -0 -1
-8 -8 -8 -7 -7 -6 -6 -6 -6 -6 -6 -6 -6 -6 -5 -4 -4 -4 -3 -3 -3 -3 -3 -3 -4 -3 -3 -3 -3 -2 -1 -0 -0 0 -0 -0 -0 -1
-8 -8 -8 -7 -7 -7 -7 -6 -6 -6 -6 -6 -6 -6 -5 -5 -4 -4 -3 -3 -3 -2 -2 -2 -3 -3 -3 -3 -2 -2 -2 -1 -1 -0 -0 -1 -1 -1
-8 -8 -8 -8 -8 -7 -8 -8 -7 -7 -7 -7 -6 -6 -5 -5 -5 -4 -4 -3 -3 -2 -2 -1 -2 -3 -3 -3 -3 -3 -2 -3 -1 -1 -1 -1 -1 -1
-8 -8 -8 -9 -8 -8 -8 -8 -8 -7 -7 -7 -7 -6 -6 -6 -5 -4 -4 -4 -3 -3 -2 -1 -1 -2 -3 -3 -3 -3 -3 -3 -2 -2 -1 -3 -2 -1
-9 -9 -9 -9 -9 -9 -9 -9 -8 -8 -8 -8 -7 -7 -7 -6 -6 -5 -4 -4 -4 -4 -3 -3 -3 -3 -3 -3 -3 -4 -4 -3 -3 -2 -2 -2 -2 -2
-10 -10 -10 -10 -10 -10 -10 -10 -10 -9 -9 -9 -8 -8 -7 -6 -6 -5 -5 -5 -5 -4 -4 -4 -4 -4 -4 -4 -4 -4 -4 -4 -3 -3 -3 -3 -3 -3
-10 -10 -10 -10 -10 -11 -11 -11 -10 -10 -10 -10 -9 -9 -8 -7 -7 -6 -6 -6 -5 -5 -4 -4 -4 -4 -5 -6 -5 -4 -4 -4 -4 -5 -5 -4 -4 -3
-11 -11 -11 -11 -11 -11 -11 -11 -11 -11 -11 -11 -10 -10 -9 -8 -8 -7 -6 -6 -6 -6 -5 -6 -4 -4 -4 -4 -5 -5 -4 -5 -5 -6 -6 -5 -4 -4
-11 -11 -11 -12 -12 -12 -12 -12 -12 -12 -12 -12 -11 -11 -10 -10 -9 -8 -7 -7 -7 -7 -7 -5 -4 -4 -3 -4 -5 -5 -5 -5 -5 -5 -5 -6 -6 -5
-11 -11 -12 -12 -12 -12 -13 -13 -13 -13 -13 -13 -12 -11 -10 -10 -9 -9 -8 -8 -7 -7 -7 -7 -6 -5 -5 -4 -4 -5 -5 -5 -5 -5 -5 -6 -6 -6